Weather History for TNCE - October, 2011

Change the Weather History Date:

Sunday, October 2, 2011

  Actual Average Record
Temperature  
Mean Temperature 84 °F -  
Max Temperature 87 °F 85 °F 89 °F (2002)
Min Temperature 80 °F 79 °F 77 °F (1997)
Cooling Degree Days 18    
Growing Degree Days 34 (Base 50)    
Moisture  
Dew Point 75 °F    
Average Humidity 74    
Maximum Humidity 89    
Minimum Humidity 62    
Precipitation  
Precipitation 0.00 in - - ()
Sea Level Pressure  
Sea Level Pressure 29.99 in    
Wind  
Wind Speed 10 mph ()    
Max Wind Speed 13 mph    
Max Gust Speed -    
Visibility 8.8 miles    
Events      
Averages and records for this station are not official NWS values.
T = Trace of Precipitation, MM = Missing Value Source: Averaged Metar Reports

Daily Weather History Graph

Daily Weather History Graph

Search for Another Location

Airport or City:

Trip Planner

Search our weather history database for the weather conditions in past years. The results will help you decide how hot, cold, wet, or windy it might be!

Date:

Astronomy

Oct. 02, 2011 Rise Set
Actual Time 6:02 AM AST 6:00 PM AST
Civil Twilight 5:40 AM AST 6:21 PM AST
Nautical Twilight 5:15 AM AST 6:46 PM AST
Astronomical Twilight 4:50 AM AST 7:12 PM AST
Moon 11:16 AM AST (10/2) 10:41 PM AST (10/2)
Length of Visible Light 12h 41m
Length of Day
11h 57m
Waxing Crescent, 34% of the Moon is Illuminated
Oct 2
Waxing Crescent
Oct 3
First Quarter
Oct 11
Full
Oct 19
Last Quarter
Oct 26
New

Hourly Weather History & Observations

Time (AST) Temp. Heat Index Dew Point Humidity Pressure Visibility Wind Dir Wind Speed Gust Speed Precip Events Conditions
1:00 AM 80.6 °F 87.1 °F 77.0 °F 89% 29.95 in - ENE 9.2 mph - N/A   Unknown
2:00 AM 80.6 °F 86.2 °F 75.2 °F 84% 29.95 in - East 9.2 mph - N/A   Unknown
9:00 AM 86.0 °F 95.1 °F 75.2 °F 70% 30.01 in 6.2 mi ENE 10.4 mph - N/A   Scattered Clouds
10:00 AM 86.0 °F 96.9 °F 77.0 °F 74% 30.04 in 6.2 mi ENE 11.5 mph - N/A   Scattered Clouds
11:00 AM 86 °F - 77 °F 69% 30.01 in 16 mi East 11.5 mph - -   Partly Cloudy
11:00 AM 86.0 °F 96.9 °F 77.0 °F 74% 30.01 in 6.2 mi ENE 10.4 mph - N/A   Scattered Clouds
12:00 PM 86.0 °F 96.9 °F 77.0 °F 74% 30.01 in 6.2 mi ENE 11.5 mph - N/A   Partly Cloudy
1:00 PM 87.8 °F 97.6 °F 75.2 °F 66% 29.98 in - East 11.5 mph - N/A   Unknown
2:00 PM 86 °F - 75 °F 62% 29.95 in 19 mi ENE 12.7 mph - -   Scattered Clouds
2:00 PM 86.0 °F 95.1 °F 75.2 °F 70% 29.95 in 6.2 mi East 12.7 mph - N/A   Partly Cloudy
3:00 PM 86.0 °F 95.1 °F 75.2 °F 70% 29.95 in 6.2 mi ENE 11.5 mph - N/A   Partly Cloudy
5:00 PM 84 °F - 74 °F 66% 29.94 in 19 mi East 12.7 mph - -   Scattered Clouds
5:00 PM 84.2 °F 92.3 °F 75.2 °F 74% 29.95 in 6.2 mi ENE 12.7 mph - N/A   Partly Cloudy
6:00 PM 82.4 °F 88.2 °F 73.4 °F 74% 29.95 in 6.2 mi ENE 10.4 mph - N/A   Partly Cloudy
7:00 PM 80.6 °F 86.2 °F 75.2 °F 84% 29.98 in 6.2 mi NE 12.7 mph - N/A   Scattered Clouds
8:00 PM 81 °F - 74 °F 75% 30.01 in 12 mi ENE 11.5 mph - -   Partly Cloudy
8:00 PM 80.6 °F 85.4 °F 73.4 °F 79% 30.01 in 6.2 mi ENE 11.5 mph - N/A   Scattered Clouds
10:00 PM 82.4 °F 88.2 °F 73.4 °F 74% 30.04 in 6.2 mi ENE 11.5 mph - N/A   Scattered Clouds
11:00 PM 81 °F - 74 °F 75%  in 6 mi ENE 10.4 mph - -   Clear
11:00 PM 80.6 °F 86.2 °F 75.2 °F 84% 30.04 in - ENE 10.4 mph - N/A   Unknown